Location: Chamerau
(49.1969°N, 12.7525°E)
Time: 08:07:56
(UTC+00:00)

Cosmos 372 Rocket - Pass Details

Date: 18 September 2020
Orbit: 739 x 767 km, 74.1° (Epoch: 24 October)

Event Time Altitude Azimuth Distance (km) Brightness Sun altitude
Rises 18:43:52 0° 195° (SSW) 3,223 7.2 -15.0°
Reaches altitude 10° 18:46:14 10° 193° (SSW) 2,300 6.4 -15.4°
Maximum altitude 18:51:26 73° 110° (ESE) 803 3.9 -16.2°
Drops below altitude 10° 18:56:39 10° 27° (NNE) 2,305 6.4 -17.0°
Sets 18:59:02 0° 25° (NNE) 3,231 7.2 -17.3°
